When you browse on this site, cookies collect data to enhance your experience and personalize the content and advertising you see.
Visit our Privacy Policy to learn more. By continuing to use the site, you agree to this use of cookies and data.
  • In Spain
  • List of Countries
  • For 7 days
  • Water Temperature
  • Satellite Maps
  • Weather Map
  • Weather Widgets
  • user-avatar
    Login

    Hourly Weather Ischgl

    Today, 18 February, Monday

    Time Temperature Precipitation Wind Pressure Humidity
    00:00 -8°C° 0 mm 2 mps 574 mmHg 23%
    01:00 -8°C° 0 mm 3 mps 574 mmHg 20%
    02:00 -7°C° 0 mm 2 mps 573 mmHg 20%
    03:00 -8°C° 0 mm 2 mps 573 mmHg 20%
    04:00 -8°C° 0 mm 2 mps 573 mmHg 21%
    05:00 -8°C° 0 mm 2 mps 573 mmHg 22%
    06:00 -8°C° 0 mm 2 mps 573 mmHg 22%
    07:00 -7°C° 0 mm 2 mps 573 mmHg 22%
    08:00 -5°C° 0 mm 2 mps 574 mmHg 34%
    09:00 -3°C° 0 mm 2 mps 574 mmHg 47%
    10:00 -2°C° 0 mm 2 mps 575 mmHg 59%
    11:00 -1°C° 0 mm 2 mps 575 mmHg 72%
    12:00 -1°C° 0 mm 2 mps 575 mmHg 85%
    13:00 +1°C° 0 mm 2 mps 575 mmHg 96%
    14:00 +1°C° 0 mm 2 mps 575 mmHg 91%
    15:00 -1°C° 0 mm 2 mps 574 mmHg 87%
    16:00 -1°C° 0 mm 2 mps 574 mmHg 82%
    17:00 -3°C° 0 mm 2 mps 573 mmHg 75%
    18:00 -5°C° 0 mm 2 mps 572 mmHg 68%
    19:00 -8°C° 0 mm 3 mps 571 mmHg 60%
    20:00 -8°C° 0 mm 3 mps 571 mmHg 56%
    21:00 -8°C° 0 mm 2 mps 571 mmHg 51%
    22:00 -8°C° 0 mm 2 mps 571 mmHg 47%
    23:00 -8°C° 0 mm 2 mps 571 mmHg 44%

    Tomorrow, 19 February, Tuesday

    Time Temperature Precipitation Wind Pressure Humidity
    00:00 -9°C° 0 mm 2 mps 571 mmHg 41%
    01:00 -9°C° 0 mm 2 mps 571 mmHg 38%
    02:00 -9°C° 0 mm 2 mps 571 mmHg 36%
    03:00 -10°C° 0 mm 2 mps 570 mmHg 34%
    04:00 -9°C° 0 mm 1 mps 570 mmHg 32%
    05:00 -9°C° 0 mm 1 mps 570 mmHg 31%
    06:00 -10°C° 0 mm 1 mps 570 mmHg 30%
    07:00 -10°C° 0 mm 1 mps 570 mmHg 29%
    08:00 -8°C° 0 mm 1 mps 571 mmHg 37%
    09:00 -4°C° 0 mm 1 mps 572 mmHg 44%
    10:00 -3°C° 0 mm 0 mps 573 mmHg 52%
    11:00 -3°C° 0 mm 0 mps 573 mmHg 60%
    12:00 -1°C° 0 mm 1 mps 573 mmHg 69%
    13:00 -1°C° 0 mm 1 mps 573 mmHg 77%
    14:00 -1°C° 0 mm 1 mps 573 mmHg 78%
    15:00 -1°C° 0 mm 1 mps 573 mmHg 79%
    16:00 -1°C° 0 mm 1 mps 573 mmHg 80%
    17:00 -3°C° 0 mm 1 mps 572 mmHg 81%
    18:00 -7°C° 0 mm 1 mps 571 mmHg 82%
    19:00 -9°C° 0 mm 0 mps 570 mmHg 83%
    20:00 -9°C° 0 mm 0 mps 570 mmHg 81%
    21:00 -9°C° 0 mm 0 mps 570 mmHg 79%
    22:00 -10°C° 0 mm 0 mps 570 mmHg 76%
    23:00 -10°C° 0 mm 1 mps 570 mmHg 73%

    Day after tomorrow, 20 February, Wednesday

    Time Temperature Precipitation Wind Pressure Humidity
    00:00 -10°C° 0 mm 1 mps 571 mmHg 71%
    01:00 -10°C° 0 mm 1 mps 571 mmHg 68%
    02:00 -10°C° 0 mm 1 mps 571 mmHg 66%
    03:00 -10°C° 0 mm 1 mps 570 mmHg 64%
    04:00 -10°C° 0 mm 1 mps 570 mmHg 63%
    05:00 -10°C° 0 mm 1 mps 571 mmHg 63%
    06:00 -10°C° 0 mm 1 mps 571 mmHg 63%
    07:00 -10°C° 0 mm 1 mps 571 mmHg 63%
    08:00 -8°C° 0 mm 1 mps 572 mmHg 65%
    09:00 -6°C° 0 mm 0 mps 573 mmHg 66%
    10:00 -4°C° 0 mm 0 mps 575 mmHg 68%
    11:00 -3°C° 0 mm 0 mps 575 mmHg 73%
    12:00 -1°C° 0 mm 1 mps 575 mmHg 79%
    13:00 -1°C° 0 mm 1 mps 575 mmHg 84%
    14:00 -1°C° 0 mm 1 mps 575 mmHg 85%
    15:00 -1°C° 0 mm 1 mps 575 mmHg 85%
    16:00 -1°C° 0 mm 1 mps 575 mmHg 86%
    17:00 -2°C° 0 mm 1 mps 574 mmHg 87%
    18:00 -4°C° 0 mm 1 mps 574 mmHg 87%
    19:00 -7°C° 0 mm 0 mps 573 mmHg 88%
    20:00 -7°C° 0 mm 0 mps 574 mmHg 86%
    21:00 -7°C° 0 mm 0 mps 574 mmHg 84%
    22:00 -7°C° 0 mm 0 mps 574 mmHg 82%
    23:00 -8°C° 0 mm 0 mps 574 mmHg 79%

    21 February, Thursday

    Time Temperature Precipitation Wind Pressure Humidity
    00:00 -8°C° 0 mm 1 mps 574 mmHg 77%
    01:00 -8°C° 0 mm 1 mps 574 mmHg 74%
    02:00 -8°C° 0 mm 1 mps 574 mmHg 71%
    03:00 -8°C° 0 mm 1 mps 574 mmHg 69%
    04:00 -7°C° 0 mm 1 mps 574 mmHg 66%
    05:00 -7°C° 0 mm 1 mps 575 mmHg 65%
    06:00 -7°C° 0 mm 1 mps 575 mmHg 63%
    07:00 -7°C° 0 mm 0 mps 575 mmHg 62%
    08:00 -6°C° 0 mm 0 mps 576 mmHg 65%
    09:00 -3°C° 0 mm 1 mps 577 mmHg 69%
    10:00 -1°C° 0 mm 1 mps 578 mmHg 72%
    11:00 0°C° 0 mm 1 mps 578 mmHg 78%
    12:00 0°C° 0 mm 1 mps 578 mmHg 83%
    13:00 0°C° 0 mm 1 mps 579 mmHg 88%
    14:00 0°C° 0 mm 1 mps 578 mmHg 88%
    15:00 0°C° 0 mm 1 mps 578 mmHg 87%
    16:00 0°C° 0 mm 1 mps 578 mmHg 87%
    17:00 -1°C° 0 mm 1 mps 578 mmHg 86%
    18:00 -3°C° 0 mm 1 mps 577 mmHg 85%
    19:00 -4°C° 0 mm 1 mps 577 mmHg 84%
    20:00 -4°C° 0 mm 1 mps 577 mmHg 81%
    21:00 -4°C° 0 mm 1 mps 578 mmHg 78%
    22:00 -6°C° 0 mm 1 mps 578 mmHg 75%
    23:00 -6°C° 0 mm 1 mps 578 mmHg 74%

    22 February, Friday

    Time Temperature Precipitation Wind Pressure Humidity
    00:00 -6°C° 0 mm 1 mps 578 mmHg 73%
    01:00 -6°C° 0 mm 1 mps 578 mmHg 72%
    02:00 -6°C° 0 mm 1 mps 578 mmHg 72%
    03:00 -6°C° 0 mm 1 mps 578 mmHg 72%
    04:00 -6°C° 0 mm 1 mps 578 mmHg 72%
    05:00 -6°C° 0 mm 1 mps 578 mmHg 73%
    06:00 -6°C° 0 mm 1 mps 578 mmHg 73%
    07:00 -7°C° 0 mm 2 mps 578 mmHg 73%
    08:00 -6°C° 0 mm 2 mps 579 mmHg 74%
    09:00 -4°C° 0 mm 2 mps 580 mmHg 76%
    10:00 -3°C° 0 mm 2 mps 581 mmHg 77%
    11:00 -2°C° 0 mm 2 mps 581 mmHg 79%
    12:00 -2°C° 0 mm 2 mps 581 mmHg 81%
    13:00 -1°C° 0 mm 2 mps 581 mmHg 84%
    14:00 -1°C° 0 mm 2 mps 581 mmHg 83%
    15:00 -2°C° 0 mm 2 mps 581 mmHg 83%
    16:00 -2°C° 0 mm 2 mps 581 mmHg 82%
    17:00 -3°C° 0 mm 2 mps 581 mmHg 83%
    18:00 -5°C° 0 mm 2 mps 580 mmHg 84%
    19:00 -6°C° 0 mm 2 mps 580 mmHg 85%
    20:00 -6°C° 0 mm 2 mps 580 mmHg 83%
    21:00 -4°C° 0 mm 1 mps 580 mmHg 80%
    22:00 -4°C° 0 mm 1 mps 580 mmHg 77%
    23:00 -4°C° 0 mm 1 mps 580 mmHg 74%

    23 February, Saturday

    Time Temperature Precipitation Wind Pressure Humidity
    00:00 -4°C° 0 mm 1 mps 580 mmHg 70%
    01:00 -4°C° 0 mm 1 mps 581 mmHg 66%
    02:00 -4°C° 0 mm 1 mps 581 mmHg 63%
    03:00 -4°C° 0 mm 1 mps 580 mmHg 59%
    04:00 -3°C° 0 mm 1 mps 580 mmHg 55%
    05:00 -3°C° 0 mm 1 mps 580 mmHg 51%
    06:00 -3°C° 0 mm 1 mps 580 mmHg 48%
    07:00 -3°C° 0 mm 1 mps 580 mmHg 44%
    08:00 -1°C° 0 mm 1 mps 581 mmHg 49%
    09:00 0°C° 0 mm 1 mps 582 mmHg 54%
    10:00 +2°C° 0 mm 1 mps 583 mmHg 59%
    11:00 +3°C° 0 mm 1 mps 584 mmHg 66%
    12:00 +3°C° 0 mm 1 mps 584 mmHg 74%
    13:00 +4°C° 0 mm 1 mps 584 mmHg 81%
    14:00 +3°C° 0 mm 1 mps 584 mmHg 79%
    15:00 +3°C° 0 mm 1 mps 583 mmHg 76%
    16:00 +3°C° 0 mm 1 mps 583 mmHg 74%
    17:00 +1°C° 0 mm 1 mps 582 mmHg 69%
    18:00 0°C° 0 mm 1 mps 582 mmHg 65%
    19:00 -1°C° 0 mm 1 mps 582 mmHg 60%
    20:00 -1°C° 0 mm 1 mps 582 mmHg 55%
    21:00 -1°C° 0 mm 1 mps 582 mmHg 50%
    22:00 -1°C° 0 mm 1 mps 582 mmHg 46%
    23:00 -1°C° 0 mm 1 mps 582 mmHg 46%
    Show more